Hourly Weather Roundup
Issued by NWS

Home | Current Version | Previous Version | Text Only | Print | Product List | Glossary On
Versions: 1 2 3 4 5 6 7 8 9 10 11 12 13 14 15 16 17 18 19 20 21 22 23 24 25 26 27 28 29 30 31 32 33 34 35 36 37 38 39 40 41 42 43 44 45 46 47 48 49 50
468
NZUS43 KILX 220510
HWRCRS

NWR Hourly Weather Roundup
National Weather Service Lincoln IL
1200 AM CDT SAT JUL 22 2017


CITY           SKY/WX    TMP DP  RH WIND       PRES   REMARKS
Champaign      CLOUDY    81  77  88 S9        29.88R HX  88
Lawrenceville  CLEAR     83  77  82 SW7       29.91F HX  92
Peoria         CLOUDY    84  73  69 S9        29.81F HX  90
Springfield    CLEAR     87  75  67 SW9       29.85F HX  96
$$


CITY           SKY/WX    TMP DP  RH WIND       PRES   REMARKS
Bloomington    CLOUDY    81  76  84 S9        29.86F HX  87
Danville       CLOUDY    78  77  99 CALM      29.86S
Decatur        CLOUDY    84  75  74 S14       29.86F HX  92
Effingham      CLEAR     84  76  76 S7        29.91F HX  92
Flora          CLEAR     82  77  83 SW7       29.91F HX  91
Galesburg      CLOUDY    81  72  72 S9        29.79F HX  86
Jacksonville   CLEAR     83  69  64 S7        29.85S HX  86
Lacon          CLOUDY    72  68  88 E9        29.83F
La Salle       CLOUDY    69  67  95 SE7       29.85F
Lincoln        CLOUDY    83  78  84 S5        29.84F HX  92
Litchfield     CLEAR     82  75  79 S8        29.89F HX  88

CITY           SKY/WX    TMP DP  RH WIND       PRES   REMARKS
Macomb         CLOUDY    83  69  62 S9        29.82F HX  87
Mattoon        CLOUDY    83  79  88 S7        29.88F HX  94
Moline         CLEAR     76  72  87 E9        29.78F
Olney          CLEAR     82  80  93 S6        29.91F HX  92
Paris          CLOUDY    80  77  91 S7        29.90S HX  85
Pontiac        LGT RAIN  70  70  99 N18G32    29.90R
Quincy         CLEAR     81  71  71 S8        29.83F HX  85
Rantoul        CLOUDY    81  78  90 S3        29.87S HX  88
Robinson       CLOUDY    82  77  85 SW6       29.90F HX  89
Taylorville    CLEAR     82  76  83 S10       29.86F HX  89
Terre Haute    CLOUDY    79  74  84 S7        29.89F HX  82
$$


CITY           SKY/WX    TMP DP  RH WIND       PRES   REMARKS
Burlington     CLEAR     82  74  76 SW10      29.77F HX  88
Chicago        TSTM      75  71  87 SE6       29.85F
Des Moines     CLEAR     88  75  65 S14       29.71F HX  97
Evansville     CLEAR     83  74  74 SW5       29.94F HX  89
Indianapolis   CLOUDY    78  75  90 SE10      29.90F HX  81
Kansas City    CLEAR     86  72  62 S20       29.83F HX  92
Milwaukee      CLOUDY    69  66  90 NE8       29.85F
St Louis       PTCLDY    92  71  50 SW15      29.90S HX  98
$$





USA.gov is the U.S. government's official web portal to all federal, state and local government web resources and services.